This is the latest recevied weather packets stored in our database for station/object KD2SIG. If no packets are shown the sender has not sent any weather packets the latest 10 day(s).
| Time | Temp. | Humidity | Pressure | Rain* | Wind** | Luminosity | Snow |
|---|---|---|---|---|---|---|---|
| 1777749608 | 7.22° C | 74% | 1014.3 hPa | 0 mm | - | 244 W/m² | - |
| 1777749305 | 7.22° C | 73% | 1014.4 hPa | 0 mm | - | 271 W/m² | - |
| 1777749003 | 7.22° C | 73% | 1014.3 hPa | 0 mm | - | 265 W/m² | - |
| 1777748700 | 7.22° C | 73% | 1014.3 hPa | 0 mm | - | 264 W/m² | - |
| 1777748396 | 7.22° C | 73% | 1014.4 hPa | 0 mm | - | 170 W/m² | - |
| 1777748092 | 7.22° C | 72% | 1014.3 hPa | 0 mm | - | 181 W/m² | - |
| 1777747789 | 7.78° C | 71% | 1014.3 hPa | 0 mm | - | 255 W/m² | - |
| 1777747484 | 8.33° C | 69% | 1014.2 hPa | 0 mm | - | 290 W/m² | - |
| 1777747181 | 7.78° C | 70% | 1014.1 hPa | 0 mm | - | 354 W/m² | - |
| 1777746877 | 7.22° C | 70% | 1014.3 hPa | 0 mm | - | 199 W/m² | - |
| 1777746572 | 7.78° C | 70% | 1014.1 hPa | 0 mm | - | 333 W/m² | - |
| 1777746268 | 7.22° C | 69% | 1014.1 hPa | 0 mm | - | 401 W/m² | - |
| 1777745964 | 7.22° C | 69% | 1014 hPa | 0 mm | - | 794 W/m² | - |
| 1777745663 | 7.22° C | 68% | 1013.9 hPa | 0 mm | - | 293 W/m² | - |
| 1777745361 | 7.78° C | 67% | 1014.1 hPa | 0 mm | - | 371 W/m² | - |
| 1777745058 | 7.22° C | 69% | 1014.1 hPa | 0 mm | - | 445 W/m² | - |
| 1777744754 | 8.33° C | 67% | 1014 hPa | 0 mm | - | 239 W/m² | - |
| 1777744448 | 8.89° C | 66% | 1014.2 hPa | 0 mm | - | 516 W/m² | - |
| 1777744145 | 8.33° C | 68% | 1014.1 hPa | 0 mm | - | 829 W/m² | - |
| 1777743842 | 7.22° C | 70% | 1014 hPa | 0 mm | - | 824 W/m² | - |
| 1777743538 | 6.67° C | 70% | 1014 hPa | 0 mm | - | 914 W/m² | - |
| 1777743235 | 6.67° C | 68% | 1013.7 hPa | 0 mm | - | 239 W/m² | - |
| 1777742934 | 6.11° C | 68% | 1014 hPa | 0 mm | - | 240 W/m² | - |
| 1777742630 | 6.67° C | 67% | 1014 hPa | 0 mm | - | 186 W/m² | - |
| 1777742326 | 7.22° C | 65% | 1013.9 hPa | 0 mm | - | 301 W/m² | - |
* Rain latest hour (hover to see other rain measurements)
** Current wind speed in m/s (hover to see current wind gust speed)